Regional Weather Roundup
Issued by NWS Cleveland, OH

Home | Current Version | Previous Version | Text Only | Print | Product List | Glossary On
Versions: 1 2 3 4 5 6 7 8 9 10 11 12 13 14 15 16 17 18 19 20 21 22 23 24 25 26 27 28 29 30 31 32 33 34 35 36 37 38 39 40 41 42 43 44 45 46 47 48 49 50
000
ASUS41 KCLE 202010
RWRCLE
OHIO REGIONAL WEATHER ROUNDUP
NATIONAL WEATHER SERVICE CLEVELAND, OH
400 PM EDT SAT SEP 20 2014

NOTE: "FAIR" INDICATES FEW OR NO CLOUDS BELOW 12,000 FEET WITH NO
SIGNIFICANT WEATHER AND/OR OBSTRUCTIONS TO VISIBILITY.

OHZ001>008-015>018-024>027-034-035-043-044-202100-
   NORTHWEST OHIO

CITY           SKY/WX    TMP DP  RH WIND       PRES   REMARKS
DEFIANCE       SUNNY     81  61  50 SW18G26   29.88F
FINDLAY        SUNNY     82  57  42 SW22G30   29.90F
TOLEDO EXPRESS SUNNY     81  58  45 SW16G25   29.86F
TOLEDO EXEC    SUNNY     82  56  40 SW21G30   29.87F
LIMA           SUNNY     80  59  48 S18G28    29.92F
$$

OHZ009>014-019>023-028>033-038-089-202100-
   NORTHEAST OHIO

CITY           SKY/WX    TMP DP  RH WIND       PRES   REMARKS
CLE-HOPKINS    MOSUNNY   79  60  52 S21G32    29.92F
CLE-LAKEFRONT  SUNNY     80  59  48 S21G32    29.89F
CUY CO. ARPT   MOSUNNY   81  64  57 S17G25    29.92F
LORAIN-ELYRIA  SUNNY     83  61  47 SW18G24   29.92F
ASHTABULA      MOSUNNY   77  62  59 S16G25    29.94F
AKRON-CANTON   PTSUNNY   77  62  59 S13       29.98F
WOOSTER        MOSUNNY   79  62  56 S15G23    29.97F
MANSFIELD      MOSUNNY   80  60  50 SW20G26   29.96F
YOUNGSTOWN     CLOUDY    77  62  59 S13G21    29.99F
$$

OHZ042-051>053-060>062-070>072-077>081-202100-
  SOUTHWEST OHIO

CITY           SKY/WX    TMP DP  RH WIND       PRES   REMARKS
CINC-COVINGTON PTSUNNY   80  63  55 SW15G22   29.99F
CINC-LUNKEN    PTSUNNY   81  65  58 S14G22    29.98F
HAMILTON       MOSUNNY   83  65  54 SW9       29.98F
DAYTON         PTSUNNY   82  61  48 SW17G25   29.97F
WRIGHT-PAT AFB MOSUNNY   82  62  51 SW17G25   29.97F
DAYTON GENERAL PTSUNNY   80  62  54 SW16G26   29.97F
WILMINGTON     MOSUNNY   80  62  54 SW17      29.99F
$$

OHZ036-037-039>041-045>050-054>059-063>069-073>076-082>088-202100-
  CENTRAL AND SOUTHEAST OHIO

CITY           SKY/WX    TMP DP  RH WIND       PRES   REMARKS
COLUMBUS       PTSUNNY   84  59  42 SW20      29.98F
OSU AIRPORT    MOSUNNY   81  61  50 SW17G24   29.97F
BOLTON FIELD   PTSUNNY   81  64  57 SW15G23   29.99F
RICKENBACK AFB PTSUNNY   81  61  51 SW20      29.98S
NEWARK         PTSUNNY   80  61  52 SW13      29.98F
MARION         MOSUNNY   81  57  43 SW21G29   29.95F
LANCASTER      MOSUNNY   82  60  47 SW14G22   29.99F
ZANESVILLE     PTSUNNY   79  61  53 S12       30.00F
NEW PHILLY     PTSUNNY   77  64  64 S9        30.00F
$$


USA.gov is the U.S. government's official web portal to all federal, state and local government web resources and services.